| time (UTC) | temp F | wind direction | speed MPH | gust MPH | rain 1hr in | rain 24hr in | rain mn in | humidity % | barometer mb |
| 20260504021924 | 69 | 248 | 5.0 | 6.0 | 0.00 | 0.00 | 0.00 | 59 | 1014.1 |
| 20260504021523 | 69 | 238 | 4.0 | 8.0 | 0.00 | 0.00 | 0.00 | 59 | 1013.4 |
| 20260504021434 | 69 | 236 | 4.0 | 9.0 | 0.00 | 0.00 | 0.00 | 59 | 1014.1 |
| 20260504020932 | 69 | 247 | 5.0 | 9.0 | 0.00 | 0.00 | 0.00 | 59 | 1014.0 |
| 20260504020423 | 69 | 238 | 5.0 | 6.0 | 0.00 | 0.00 | 0.00 | 59 | 1014.0 |
| 20260504020030 | 69 | 237 | 4.0 | 6.0 | 0.00 | 0.00 | 0.00 | 58 | 1013.3 |
| 20260504015933 | 69 | 248 | 5.0 | 6.0 | 0.00 | 0.00 | 0.00 | 58 | 1013.9 |
| 20260504015435 | 70 | 237 | 4.0 | 6.0 | 0.00 | 0.00 | 0.00 | 58 | 1013.9 |
| 20260504014927 | 70 | 244 | 4.0 | 8.0 | 0.00 | 0.00 | 0.00 | 58 | 1013.9 |
| 20260504014538 | 70 | 235 | 4.0 | 8.0 | 0.00 | 0.00 | 0.00 | 57 | 1013.3 |
| 20260504014436 | 70 | 241 | 5.0 | 8.0 | 0.00 | 0.00 | 0.00 | 57 | 1013.8 |
| 20260504013948 | 70 | 239 | 5.0 | 8.0 | 0.00 | 0.00 | 0.00 | 57 | 1013.7 |
| 20260504013430 | 70 | 236 | 5.0 | 8.0 | 0.00 | 0.00 | 0.00 | 56 | 1013.8 |
| 20260504013034 | 70 | 248 | 5.0 | 7.0 | 0.00 | 0.00 | 0.00 | 56 | 1013.2 |
| 20260504012959 | 70 | 237 | 5.0 | 7.0 | 0.00 | 0.00 | 0.00 | 56 | 1013.8 |
| 20260504012430 | 71 | 234 | 5.0 | 7.0 | 0.00 | 0.00 | 0.00 | 56 | 1013.8 |
| 20260504011933 | 71 | 238 | 5.0 | 6.0 | 0.00 | 0.00 | 0.00 | 56 | 1013.8 |
| 20260504011510 | 70 | 229 | 4.0 | 7.0 | 0.00 | 0.00 | 0.00 | 56 | 1013.2 |
| 20260504011439 | 71 | 217 | 4.0 | 7.0 | 0.00 | 0.00 | 0.00 | 56 | 1013.8 |
| 20260504010931 | 71 | 235 | 4.0 | 7.0 | 0.00 | 0.00 | 0.00 | 56 | 1013.8 |
| 20260504010434 | 71 | 243 | 4.0 | 6.0 | 0.00 | 0.00 | 0.00 | 56 | 1013.7 |
| 20260504010018 | 71 | 230 | 4.0 | 6.0 | 0.00 | 0.00 | 0.00 | 56 | 1013.1 |
| 20260504005924 | 71 | 240 | 4.0 | 6.0 | 0.00 | 0.00 | 0.00 | 56 | 1013.7 |
| 20260504005427 | 72 | 240 | 4.0 | 6.0 | 0.00 | 0.00 | 0.00 | 55 | 1013.7 |
| 20260504004938 | 72 | 224 | 4.0 | 5.0 | 0.00 | 0.00 | 0.00 | 54 | 1013.6 |
| 20260504004529 | 72 | 236 | 4.0 | 5.0 | 0.00 | 0.00 | 0.00 | 54 | 1013.1 |
| 20260504004428 | 72 | 230 | 4.0 | 5.0 | 0.00 | 0.00 | 0.00 | 54 | 1013.7 |
| 20260504003925 | 73 | 224 | 4.0 | 6.0 | 0.00 | 0.00 | 0.00 | 54 | 1013.7 |
| 20260504003436 | 73 | 256 | 4.0 | 5.0 | 0.00 | 0.00 | 0.00 | 53 | 1013.8 |
| 20260504003011 | 72 | 245 | 3.0 | 5.0 | 0.00 | 0.00 | 0.00 | 53 | 1013.2 |
| 20260504002925 | 73 | 243 | 4.0 | 5.0 | 0.00 | 0.00 | 0.00 | 53 | 1013.8 |
| 20260504002458 | 73 | 224 | 4.0 | 6.0 | 0.00 | 0.00 | 0.00 | 52 | 1013.8 |
| 20260504001949 | 73 | 245 | 4.0 | 6.0 | 0.00 | 0.00 | 0.00 | 52 | 1013.8 |
| 20260504001604 | 73 | 243 | 3.0 | 5.0 | 0.00 | 0.00 | 0.00 | 51 | 1013.2 |
| 20260504001459 | 74 | 245 | 3.0 | 5.0 | 0.00 | 0.00 | 0.00 | 52 | 1013.9 |
| 20260504000940 | 74 | 239 | 4.0 | 5.0 | 0.00 | 0.00 | 0.00 | 51 | 1013.8 |
| 20260504000432 | 74 | 213 | 4.0 | 7.0 | 0.00 | 0.00 | 0.00 | 50 | 1013.9 |
| 20260504000121 | 74 | 246 | 4.0 | 7.0 | 0.00 | 0.00 | 0.00 | 50 | 1013.3 |
| 20260503235932 | 75 | 234 | 4.0 | 7.0 | 0.00 | 0.00 | 0.00 | 50 | 1014.0 |
| 20260503235424 | 75 | 233 | 5.0 | 8.0 | 0.00 | 0.00 | 0.00 | 49 | 1014.0 |
| 20260503234934 | 75 | 252 | 5.0 | 8.0 | 0.00 | 0.00 | 0.00 | 49 | 1014.0 |
| 20260503234547 | 75 | 196 | 4.0 | 9.0 | 0.00 | 0.00 | 0.00 | 49 | 1013.3 |
| 20260503234423 | 75 | 252 | 4.0 | 9.0 | 0.00 | 0.00 | 0.00 | 48 | 1014.0 |
| 20260503233925 | 75 | 218 | 4.0 | 7.0 | 0.00 | 0.00 | 0.00 | 48 | 1014.1 |
| 20260503233433 | 75 | 170 | 4.0 | 7.0 | 0.00 | 0.00 | 0.00 | 48 | 1014.1 |
| 20260503233024 | 75 | 217 | 3.0 | 6.0 | 0.00 | 0.00 | 0.00 | 48 | 1013.5 |
| 20260503232923 | 75 | 249 | 4.0 | 6.0 | 0.00 | 0.00 | 0.00 | 48 | 1014.1 |
| 20260503232426 | 75 | 246 | 3.0 | 6.0 | 0.00 | 0.00 | 0.00 | 47 | 1014.1 |
| 20260503231939 | 75 | 236 | 3.0 | 6.0 | 0.00 | 0.00 | 0.00 | 48 | 1014.1 |
| 20260503231532 | 75 | 257 | 3.0 | 6.0 | 0.00 | 0.00 | 0.00 | 47 | 1013.5 |
| 20260503231427 | 76 | 212 | 3.0 | 6.0 | 0.00 | 0.00 | 0.00 | 48 | 1014.1 |
| 20260503230930 | 76 | 254 | 3.0 | 8.0 | 0.00 | 0.00 | 0.00 | 47 | 1014.1 |
| 20260503230440 | 76 | 244 | 5.0 | 8.0 | 0.00 | 0.00 | 0.00 | 46 | 1014.0 |
| 20260503230018 | 75 | 250 | 4.0 | 7.0 | 0.00 | 0.00 | 0.00 | 46 | 1013.4 |
| 20260503225950 | 76 | 245 | 5.0 | 7.0 | 0.00 | 0.00 | 0.00 | 45 | 1014.0 |
| 20260503225420 | 76 | 275 | 5.0 | 9.0 | 0.00 | 0.00 | 0.00 | 45 | 1014.0 |
| 20260503224930 | 76 | 218 | 4.0 | 9.0 | 0.00 | 0.00 | 0.00 | 46 | 1014.1 |
| 20260503224547 | 76 | 264 | 3.0 | 9.0 | 0.00 | 0.00 | 0.00 | 46 | 1013.5 |
| 20260503224432 | 76 | 238 | 3.0 | 5.0 | 0.00 | 0.00 | 0.00 | 46 | 1014.1 |
| 20260503223921 | 77 | 245 | 2.0 | 5.0 | 0.00 | 0.00 | 0.00 | 45 | 1014.1 |
| 20260503223452 | 77 | 244 | 4.0 | 6.0 | 0.00 | 0.00 | 0.00 | 45 | 1014.3 |
| 20260503223015 | 76 | 247 | 3.0 | 9.0 | 0.00 | 0.00 | 0.00 | 45 | 1013.7 |
| 20260503222936 | 77 | 230 | 3.0 | 9.0 | 0.00 | 0.00 | 0.00 | 44 | 1014.3 |
| 20260503222425 | 77 | 229 | 5.0 | 9.0 | 0.00 | 0.00 | 0.00 | 44 | 1014.4 |
| 20260503221957 | 77 | 233 | 5.0 | 7.0 | 0.00 | 0.00 | 0.00 | 43 | 1014.4 |
| 20260503221520 | 77 | 240 | 3.0 | 7.0 | 0.00 | 0.00 | 0.00 | 43 | 1013.9 |
| 20260503221426 | 77 | 242 | 3.0 | 7.0 | 0.00 | 0.00 | 0.00 | 42 | 1014.5 |
| 20260503220928 | 78 | 227 | 4.0 | 7.0 | 0.00 | 0.00 | 0.00 | 44 | 1014.5 |
| 20260503220440 | 78 | 231 | 4.0 | 7.0 | 0.00 | 0.00 | 0.00 | 42 | 1014.5 |
| 20260503220030 | 78 | 228 | 3.0 | 6.0 | 0.00 | 0.00 | 0.00 | 43 | 1014.0 |
| 20260503215930 | 78 | 179 | 4.0 | 6.0 | 0.00 | 0.00 | 0.00 | 42 | 1014.6 |
| 20260503215433 | 78 | 238 | 2.0 | 6.0 | 0.00 | 0.00 | 0.00 | 44 | 1014.7 |
| 20260503214925 | 78 | 307 | 3.0 | 6.0 | 0.00 | 0.00 | 0.00 | 43 | 1014.7 |
| 20260503214542 | 78 | 253 | 3.0 | 11.0 | 0.00 | 0.00 | 0.00 | 42 | 1014.2 |
| 20260503214435 | 78 | 252 | 4.0 | 11.0 | 0.00 | 0.00 | 0.00 | 43 | 1014.7 |
| 20260503213938 | 78 | 258 | 5.0 | 11.0 | 0.00 | 0.00 | 0.00 | 43 | 1014.8 |
| 20260503213429 | 78 | 243 | 3.0 | 9.0 | 0.00 | 0.00 | 0.00 | 44 | 1014.9 |
| 20260503213046 | 77 | 252 | 3.0 | 9.0 | 0.00 | 0.00 | 0.00 | 44 | 1014.5 |
| 20260503212959 | 78 | 243 | 4.0 | 9.0 | 0.00 | 0.00 | 0.00 | 43 | 1015.0 |
| 20260503212420 | 78 | 231 | 5.0 | 7.0 | 0.00 | 0.00 | 0.00 | 44 | 1015.0 |
| 20260503211932 | 78 | 240 | 4.0 | 8.0 | 0.00 | 0.00 | 0.00 | 45 | 1015.1 |
| 20260503211533 | 77 | 206 | 5.0 | 8.0 | 0.00 | 0.00 | 0.00 | 45 | 1014.6 |
| 20260503211458 | 78 | 252 | 5.0 | 8.0 | 0.00 | 0.00 | 0.00 | 43 | 1015.1 |
| 20260503210920 | 78 | 206 | 5.0 | 9.0 | 0.00 | 0.00 | 0.00 | 41 | 1015.3 |
| 20260503210433 | 78 | 205 | 4.0 | 11.0 | 0.00 | 0.00 | 0.00 | 44 | 1015.4 |
| 20260503210020 | 77 | 224 | 6.0 | 11.0 | 0.00 | 0.00 | 0.00 | 45 | 1015.0 |
| 20260503205922 | 78 | 231 | 6.0 | 11.0 | 0.00 | 0.00 | 0.00 | 44 | 1015.5 |
| 20260503205425 | 78 | 255 | 3.0 | 7.0 | 0.00 | 0.00 | 0.00 | 46 | 1015.6 |
| 20260503204936 | 77 | 233 | 4.0 | 7.0 | 0.00 | 0.00 | 0.00 | 43 | 1015.7 |
| 20260503204528 | 77 | 231 | 2.0 | 7.0 | 0.00 | 0.00 | 0.00 | 44 | 1015.2 |
| 20260503204426 | 78 | 252 | 3.0 | 7.0 | 0.00 | 0.00 | 0.00 | 44 | 1015.8 |
| 20260503203937 | 78 | 222 | 4.0 | 8.0 | 0.00 | 0.00 | 0.00 | 44 | 1015.8 |
| 20260503203508 | 77 | 239 | 4.0 | 9.0 | 0.00 | 0.00 | 0.00 | 43 | 1015.9 |
| 20260503203113 | 77 | 236 | 5.0 | 9.0 | 0.00 | 0.00 | 0.00 | 43 | 1015.5 |
| 20260503202928 | 77 | 277 | 6.0 | 9.0 | 0.00 | 0.00 | 0.00 | 42 | 1016.1 |
| 20260503202458 | 77 | 212 | 5.0 | 11.0 | 0.00 | 0.00 | 0.00 | 42 | 1016.2 |
| 20260503201930 | 77 | 254 | 5.0 | 11.0 | 0.00 | 0.00 | 0.00 | 44 | 1016.2 |
| 20260503201543 | 77 | 238 | 3.0 | 9.0 | 0.00 | 0.00 | 0.00 | 44 | 1015.8 |
| 20260503201438 | 77 | 199 | 4.0 | 9.0 | 0.00 | 0.00 | 0.00 | 44 | 1016.4 |
| 20260503201004 | 77 | 250 | 4.0 | 9.0 | 0.00 | 0.00 | 0.00 | 44 | 1016.5 |
| 20260503200447 | 77 | 269 | 5.0 | 8.0 | 0.00 | 0.00 | 0.00 | 44 | 1016.6 |
| 20260503200024 | 76 | 238 | 3.0 | 11.0 | 0.00 | 0.00 | 0.00 | 45 | 1016.2 |
| 20260503195933 | 77 | 251 | 5.0 | 11.0 | 0.00 | 0.00 | 0.00 | 44 | 1016.7 |
| 20260503195445 | 76 | 251 | 6.0 | 10.0 | 0.00 | 0.00 | 0.00 | 44 | 1016.9 |
| 20260503194927 | 77 | 252 | 5.0 | 8.0 | 0.00 | 0.00 | 0.00 | 42 | 1017.0 |
| 20260503194532 | 76 | 251 | 4.0 | 9.0 | 0.00 | 0.00 | 0.00 | 43 | 1016.6 |
| 20260503194436 | 77 | 211 | 4.0 | 9.0 | 0.00 | 0.00 | 0.00 | 43 | 1017.1 |
| 20260503193938 | 76 | 240 | 5.0 | 10.0 | 0.00 | 0.00 | 0.00 | 43 | 1017.1 |
| 20260503193429 | 76 | 249 | 4.0 | 10.0 | 0.00 | 0.00 | 0.00 | 47 | 1017.1 |
| 20260503193039 | 75 | 180 | 5.0 | 9.0 | 0.00 | 0.00 | 0.00 | 46 | 1016.7 |
| 20260503192938 | 76 | 260 | 5.0 | 9.0 | 0.00 | 0.00 | 0.00 | 45 | 1017.2 |
| 20260503192449 | 76 | 252 | 5.0 | 10.0 | 0.00 | 0.00 | 0.00 | 44 | 1017.3 |
| 20260503192001 | 76 | 184 | 6.0 | 10.0 | 0.00 | 0.00 | 0.00 | 43 | 1017.4 |
| 20260503191503 | 75 | 249 | 3.0 | 8.0 | 0.00 | 0.00 | 0.00 | 43 | 1017.0 |
| 20260503191441 | 76 | 240 | 4.0 | 8.0 | 0.00 | 0.00 | 0.00 | 45 | 1017.5 |
| 20260503190933 | 76 | 240 | 4.0 | 9.0 | 0.00 | 0.00 | 0.00 | 46 | 1017.5 |
| 20260503190435 | 75 | 173 | 3.0 | 10.0 | 0.00 | 0.00 | 0.00 | 45 | 1017.7 |
| 20260503190012 | 75 | 228 | 5.0 | 10.0 | 0.00 | 0.00 | 0.00 | 46 | 1017.3 |
| 20260503185925 | 75 | 249 | 5.0 | 10.0 | 0.00 | 0.00 | 0.00 | 44 | 1017.7 |
| 20260503185437 | 75 | 237 | 3.0 | 10.0 | 0.00 | 0.00 | 0.00 | 46 | 1017.8 |
| 20260503184939 | 74 | 253 | 4.0 | 10.0 | 0.00 | 0.00 | 0.00 | 44 | 1018.0 |
| 20260503184519 | 74 | 245 | 4.0 | 8.0 | 0.00 | 0.00 | 0.00 | 46 | 1017.6 |
| 20260503184445 | 74 | 198 | 5.0 | 8.0 | 0.00 | 0.00 | 0.00 | 46 | 1018.0 |
| 20260503183935 | 74 | 236 | 5.0 | 9.0 | 0.00 | 0.00 | 0.00 | 45 | 1018.2 |
| 20260503183447 | 74 | 210 | 5.0 | 9.0 | 0.00 | 0.00 | 0.00 | 44 | 1018.2 |
| 20260503183006 | 73 | 245 | 3.0 | 7.0 | 0.00 | 0.00 | 0.00 | 46 | 1017.8 |
| 20260503182928 | 74 | 239 | 4.0 | 7.0 | 0.00 | 0.00 | 0.00 | 43 | 1018.3 |
| 20260503182439 | 73 | 236 | 4.0 | 9.0 | 0.00 | 0.00 | 0.00 | 43 | 1018.3 |
| 20260503181951 | 73 | 264 | 6.0 | 16.0 | 0.00 | 0.00 | 0.00 | 41 | 1018.5 |
| 20260503181516 | 73 | 210 | 5.0 | 16.0 | 0.00 | 0.00 | 0.00 | 44 | 1018.0 |
| 20260503181431 | 73 | 172 | 5.0 | 11.0 | 0.00 | 0.00 | 0.00 | 46 | 1018.5 |
| 20260503180943 | 73 | 243 | 6.0 | 11.0 | 0.00 | 0.00 | 0.00 | 45 | 1018.6 |
| 20260503180426 | 73 | 237 | 5.0 | 11.0 | 0.00 | 0.00 | 0.00 | 44 | 1018.6 |
| 20260503180028 | 72 | 250 | 5.0 | 9.0 | 0.00 | 0.00 | 0.00 | 46 | 1018.3 |
| 20260503175936 | 73 | 288 | 6.0 | 9.0 | 0.00 | 0.00 | 0.00 | 46 | 1018.8 |
| 20260503175447 | 72 | 252 | 3.0 | 9.0 | 0.00 | 0.00 | 0.00 | 44 | 1018.9 |
| 20260503174950 | 73 | 246 | 6.0 | 9.0 | 0.00 | 0.00 | 0.00 | 44 | 1019.0 |
| 20260503174514 | 72 | 238 | 3.0 | 8.0 | 0.00 | 0.00 | 0.00 | 47 | 1018.6 |
| 20260503174439 | 72 | 172 | 4.0 | 8.0 | 0.00 | 0.00 | 0.00 | 47 | 1019.1 |
| 20260503173931 | 72 | 212 | 3.0 | 8.0 | 0.00 | 0.00 | 0.00 | 44 | 1019.1 |
| 20260503173503 | 71 | 186 | 4.0 | 8.0 | 0.00 | 0.00 | 0.00 | 45 | 1019.2 |
| 20260503173053 | 71 | 255 | 5.0 | 8.0 | 0.00 | 0.00 | 0.00 | 46 | 1018.9 |
| 20260503172923 | 72 | 242 | 4.0 | 8.0 | 0.00 | 0.00 | 0.00 | 47 | 1019.4 |
| 20260503172440 | 71 | 247 | 4.0 | 8.0 | 0.00 | 0.00 | 0.00 | 47 | 1019.4 |
| 20260503171941 | 71 | 238 | 5.0 | 8.0 | 0.00 | 0.00 | 0.00 | 46 | 1019.5 |
| 20260503171535 | 70 | 214 | 3.0 | 8.0 | 0.00 | 0.00 | 0.00 | 48 | 1019.2 |
| 20260503171431 | 71 | 242 | 5.0 | 8.0 | 0.00 | 0.00 | 0.00 | 47 | 1019.6 |
| 20260503170934 | 71 | 270 | 5.0 | 7.0 | 0.00 | 0.00 | 0.00 | 45 | 1019.6 |
| 20260503170426 | 71 | 236 | 3.0 | 6.0 | 0.00 | 0.00 | 0.00 | 47 | 1019.6 |
| 20260503150923 | 62 | 241 | 3.0 | 8.0 | 0.00 | 0.00 | 0.00 | 61 | 1020.8 |
| 20260503150426 | 62 | 211 | 3.0 | 6.0 | 0.00 | 0.00 | 0.00 | 62 | 1020.9 |
| 20260503130947 | 53 | 152 | 3.0 | 10.0 | 0.00 | 0.00 | 0.00 | 72 | 1020.6 |
| 20260503130430 | 53 | 183 | 3.0 | 6.0 | 0.00 | 0.00 | 0.00 | 72 | 1020.7 |
| 20260503110451 | 52 | 49 | 1.0 | 2.0 | 0.00 | 0.00 | 0.00 | 59 | 1019.7 |
| 20260503090440 | 54 | 47 | 1.0 | 2.0 | 0.00 | 0.00 | 0.00 | 55 | 1019.4 |
| 20260503081548 | 55 | 50 | 2.0 | 2.0 | 0.00 | 0.00 | 0.00 | 55 | 1019.2 |
| 20260503081437 | 55 | 50 | 2.0 | 2.0 | 0.00 | 0.00 | 0.00 | 54 | 1019.5 |
| 20260503081007 | 55 | 52 | 2.0 | 2.0 | 0.00 | 0.00 | 0.00 | 54 | 1019.5 |
| 20260503080434 | 55 | 52 | 1.0 | 2.0 | 0.00 | 0.00 | 0.00 | 54 | 1019.5 |
| 20260503072926 | 56 | 52 | 0.0 | 2.0 | 0.00 | 0.00 | 0.00 | 53 | 1019.5 |
| 20260503072436 | 56 | 53 | 1.0 | 2.0 | 0.00 | 0.00 | 0.00 | 52 | 1019.5 |
| 20260503071947 | 56 | 49 | 1.0 | 2.0 | 0.00 | 0.00 | 0.00 | 52 | 1019.5 |
| 20260503071534 | 56 | 49 | 0.0 | 2.0 | 0.00 | 0.00 | 0.00 | 53 | 1019.2 |
| 20260503071456 | 56 | 49 | 0.0 | 2.0 | 0.00 | 0.00 | 0.00 | 53 | 1019.5 |
| 20260503070947 | 56 | 49 | 1.0 | 2.0 | 0.00 | 0.00 | 0.00 | 53 | 1019.6 |
| 20260503070437 | 56 | 50 | 1.0 | 3.0 | 0.00 | 0.00 | 0.00 | 53 | 1019.6 |
| 20260503070106 | 56 | 53 | 1.0 | 3.0 | 0.00 | 0.00 | 0.00 | 52 | 1019.2 |
| 20260503060107 | 56 | 51 | 1.0 | 2.0 | 0.00 | 0.00 | 0.00 | 53 | 1019.2 |
| 20260503054951 | 57 | 56 | 2.0 | 3.0 | 0.00 | 0.00 | 0.00 | 53 | 1019.4 |
| 20260503054611 | 57 | 61 | 2.0 | 3.0 | 0.00 | 0.00 | 0.00 | 53 | 1019.1 |
| 20260503054432 | 57 | 53 | 2.0 | 3.0 | 0.00 | 0.00 | 0.00 | 53 | 1019.4 |
| 20260503053923 | 57 | 53 | 2.0 | 2.0 | 0.00 | 0.00 | 0.00 | 53 | 1019.4 |
| 20260503053426 | 57 | 53 | 2.0 | 3.0 | 0.00 | 0.00 | 0.00 | 53 | 1019.5 |
| 20260503053109 | 57 | 56 | 1.0 | 3.0 | 0.00 | 0.00 | 0.00 | 54 | 1019.1 |
| 20260503053005 | 57 | 49 | 2.0 | 3.0 | 0.00 | 0.00 | 0.00 | 53 | 1019.5 |
| 20260503052426 | 57 | 55 | 2.0 | 3.0 | 0.00 | 0.00 | 0.00 | 54 | 1019.5 |
| 20260503051938 | 57 | 60 | 2.0 | 3.0 | 0.00 | 0.00 | 0.00 | 54 | 1019.4 |
| 20260503051556 | 57 | 53 | 2.0 | 3.0 | 0.00 | 0.00 | 0.00 | 53 | 1019.1 |
| 20260503051439 | 58 | 54 | 2.0 | 3.0 | 0.00 | 0.00 | 0.00 | 54 | 1019.4 |
| 20260503050930 | 58 | 51 | 2.0 | 3.0 | 0.00 | 0.00 | 0.00 | 53 | 1019.4 |
| 20260503050437 | 58 | 56 | 3.0 | 3.0 | 0.00 | 0.00 | 0.00 | 52 | 1019.3 |
| 20260503045934 | 58 | 54 | 3.0 | 3.0 | 0.00 | 0.00 | 0.00 | 52 | 1019.4 |
| 20260503045445 | 58 | 52 | 2.0 | 3.0 | 0.00 | 0.00 | 0.00 | 52 | 1019.4 |
| 20260503044936 | 59 | 52 | 2.0 | 3.0 | 0.00 | 0.00 | 0.00 | 52 | 1019.4 |
| 20260503044546 | 58 | 58 | 2.0 | 3.0 | 0.00 | 0.00 | 0.00 | 52 | 1019.0 |
| 20260503044447 | 59 | 51 | 2.0 | 3.0 | 0.00 | 0.00 | 0.00 | 52 | 1019.3 |
| 20260503043928 | 59 | 58 | 2.0 | 3.0 | 0.00 | 0.00 | 0.00 | 51 | 1019.3 |
| 20260503043440 | 59 | 51 | 2.0 | 2.0 | 0.00 | 0.00 | 0.00 | 51 | 1019.3 |
| 20260503043034 | 59 | 51 | 1.0 | 2.0 | 0.00 | 0.00 | 0.00 | 50 | 1018.9 |
| 20260503042930 | 59 | 52 | 2.0 | 2.0 | 0.00 | 0.00 | 0.00 | 50 | 1019.2 |
| 20260503042433 | 60 | 57 | 1.0 | 2.0 | 0.00 | 0.00 | 0.00 | 49 | 1019.2 |
| 20260503041925 | 60 | 55 | 2.0 | 3.0 | 0.00 | 0.00 | 0.00 | 49 | 1019.2 |
| 20260503041543 | 59 | 60 | 1.0 | 3.0 | 0.00 | 0.00 | 0.00 | 49 | 1018.8 |
| 20260503041426 | 59 | 56 | 2.0 | 3.0 | 0.00 | 0.00 | 0.00 | 49 | 1019.2 |
| 20260503040938 | 59 | 50 | 2.0 | 2.0 | 0.00 | 0.00 | 0.00 | 51 | 1019.1 |
| 20260503040429 | 59 | 50 | 2.0 | 2.0 | 0.00 | 0.00 | 0.00 | 52 | 1019.1 |
| 20260503040052 | 59 | 50 | 1.0 | 2.0 | 0.00 | 0.00 | 0.00 | 52 | 1018.7 |
| 20260503035931 | 59 | 50 | 0.0 | 3.0 | 0.00 | 0.00 | 0.00 | 52 | 1019.1 |
| 20260503035422 | 59 | 59 | 1.0 | 3.0 | 0.00 | 0.00 | 0.00 | 52 | 1019.1 |
| 20260503034934 | 59 | 59 | 3.0 | 3.0 | 0.00 | 0.00 | 0.00 | 54 | 1019.1 |
| 20260503034558 | 58 | 49 | 2.0 | 3.0 | 0.00 | 0.00 | 0.00 | 54 | 1018.8 |
| 20260503034434 | 59 | 53 | 2.0 | 3.0 | 0.00 | 0.00 | 0.00 | 54 | 1019.1 |
| 20260503033926 | 59 | 57 | 2.0 | 3.0 | 0.00 | 0.00 | 0.00 | 54 | 1019.1 |
| 20260503033453 | 59 | 53 | 2.0 | 3.0 | 0.00 | 0.00 | 0.00 | 53 | 1019.0 |
| 20260503033055 | 59 | 53 | 2.0 | 3.0 | 0.00 | 0.00 | 0.00 | 54 | 1018.6 |
| 20260503032942 | 59 | 58 | 2.0 | 2.0 | 0.00 | 0.00 | 0.00 | 54 | 1018.9 |
| 20260503032431 | 59 | 53 | 2.0 | 2.0 | 0.00 | 0.00 | 0.00 | 54 | 1019.0 |
| 20260503031934 | 59 | 56 | 1.0 | 2.0 | 0.00 | 0.00 | 0.00 | 54 | 1018.9 |
| 20260503031511 | 59 | 56 | 1.0 | 3.0 | 0.00 | 0.00 | 0.00 | 54 | 1018.5 |
| 20260503031424 | 60 | 57 | 2.0 | 3.0 | 0.00 | 0.00 | 0.00 | 54 | 1018.9 |
| 20260503030935 | 60 | 56 | 2.0 | 3.0 | 0.00 | 0.00 | 0.00 | 54 | 1018.9 |
| 20260503030439 | 60 | 49 | 2.0 | 3.0 | 0.00 | 0.00 | 0.00 | 53 | 1018.8 |
| 20260503030025 | 59 | 57 | 1.0 | 3.0 | 0.00 | 0.00 | 0.00 | 54 | 1018.4 |
| 20260503025928 | 60 | 56 | 2.0 | 3.0 | 0.00 | 0.00 | 0.00 | 54 | 1018.8 |
| 20260503025440 | 60 | 46 | 2.0 | 4.0 | 0.00 | 0.00 | 0.00 | 54 | 1018.8 |
| 20260503024922 | 60 | 60 | 3.0 | 4.0 | 0.00 | 0.00 | 0.00 | 54 | 1018.6 |
| 20260503024507 | 58 | 61 | 2.0 | 4.0 | 0.00 | 0.00 | 0.00 | 55 | 1018.2 |
| 20260503024433 | 59 | 56 | 3.0 | 4.0 | 0.00 | 0.00 | 0.00 | 56 | 1018.5 |
| 20260503023944 | 58 | 59 | 1.0 | 9.0 | 0.00 | 0.00 | 0.00 | 59 | 1018.6 |
| 20260503023456 | 61 | 73 | 3.0 | 9.0 | 0.00 | 0.00 | 0.00 | 56 | 1018.5 |
| 20260503023105 | 62 | 41 | 0.0 | 2.0 | 0.00 | 0.00 | 0.00 | 44 | 1018.0 |
| 20260503022940 | 63 | 10 | 1.0 | 2.0 | 0.00 | 0.00 | 0.00 | 44 | 1018.3 |